"SCET";"TARGET";"ELECTRON_DENSITY";"ERROR_FLAG";"ELECTRON_DENSITY_ERROR";"FREQ_FCE";"MEASURED_VALUE";"MEASURED_ITEM";"FREQ_PLASMA";"FREQ_UPPER_HYBRID";"FREQ_R_EQUALS_ZERO";"FREQ_L_EQUALS_ZERO";"ORBIT_NUMBER";"SATURN_RADIUS";"SATURN_IAU_LONGITUDE";"SATURN_SLS4_S_LONGITUDE";"SATURN_SLS4_N_LONGITUDE";"SATURN_SLS5_S_LONGITUDE";"SATURN_SLS5_N_LONGITUDE";"SATURN_LOCAL_TIME";"SATURN_KRONOGRAPHIC_LATITUDE";"SATURN_MAGNETIC_LATITUDE";"SATURN_L";"SATURN_L_OFFSET";"SATURN_SOLAR_EQUATORIAL_X";"SATURN_SOLAR_EQUATORIAL_Y";"SATURN_SOLAR_EQUATORIAL_Z";"SATURN_ALTITUDE";"ENCELADUS_ENCOUNTER_NUMBER";"ENCELADUS_RADIUS";"ENCELADUS_COROTATIONAL_X";"ENCELADUS_COROTATIONAL_Y";"ENCELADUS_COROTATIONAL_Z";"ENCELADUS_TRUE_ANOMALY";"ENCELADUS_PERIAPSIS_TIME";"JUPITER_RADIUS";"JUPITER_SYSTEMIII_LONGITUDE";"JUPITER_MAGNETIC_LATITUDE";"JUPITER_MAGNETIC_LOCAL_TIME";"JUPITER_L";"IO_PHASE";"EARTH_RADIUS";"EARTH_MAGNETIC_LATITUDE";"EARTH_LOCAL_TIME";"EARTH_L"
"[UTC]";"[0=Saturn, 1=Enceladus, 2=Jupiter, 3=Earth]";"[cm-3]";"[0=automated, 1=manual]";"[normalized density error]";"[Hz]";"[Hz]";"[0=upper hybrid frequency, 1=plasma frequency cutoff]";"[Hz]";"[Hz]";"[Hz]";"[Hz}";"[0, A, B, C, 3, 4, ... , 292, 293]";"[Rs where 1Rs=60268km]";"[degrees]";"[degrees]";"[degrees]";"[degrees]";"[degrees]";"[hours]";"[degrees]";"[degrees where offset=2293km north]";"[Rs where 1Rs=60268km]";"[Rs where 1Rs=60268km and offset=2293km north]";"[Rs where 1Rs=60268km]";"[Rs where 1Rs=60268km]";"[Rs where 1Rs=60268km]";"[km where ellipsoid a,b=60268km and c=54364km]";"[E0, E1, E2, ... , E21, E22]";"[Renc where 1Renc=252.1km]";"[Renc where 1Renc=252.1km]";"[Renc where 1Renc=252.1km]";"[Renc where 1Renc=252.1km]";"[degrees]";"[UTC]";"[Rj where 1Rj=71492km]";"[degrees]";"[degrees using JRM09 model]";"[hours using JRM09 model]";"[Rj where 1Rj=71492km]";"[degrees]";"[Re where 1Re=6378.1366km]";"[degrees]";"[hours]";"[Re where 1Re=6378.1366km]"
2006-10-12T02:15:14.374Z;0;7.6300e+00;0;     0.061;  3015.292;  24988.242; 0;  24805.650;  24988.242;  26359.070;  23343.777; 30;   5.790;  21.318; 138.112; 286.802; 155.470; 299.649;  13.565; -10.599; -10.969;   5.993;   5.792;   5.220;   2.268;  -1.065;;;;;;;;;;;;;;;;;;
2006-10-12T02:15:22.374Z;0;7.7000e+00;0;     0.059;  3015.292;  25099.834; 0;  24918.059;  25099.834;  26471.273;  23455.980; 30;   5.791;  21.380; 138.174; 286.865; 155.530; 299.713;  13.566; -10.587; -10.956;   5.993;   5.792;   5.220;   2.269;  -1.064;;;;;;;;;;;;;;;;;;
2006-10-12T02:15:46.373Z;0;7.7950e+00;0;     0.058;  3015.292;  25252.248; 0;  25071.578;  25252.248;  26624.514;  23609.221; 30;   5.792;  21.568; 138.358; 287.054; 155.713; 299.904;  13.569; -10.549; -10.919;   5.993;   5.793;   5.221;   2.273;  -1.060;;;;;;;;;;;;;;;;;;
2006-10-12T02:15:54.373Z;0;7.7450e+00;0;     0.060;  3015.292;  25172.557; 0;  24991.311;  25172.557;  26544.391;  23529.100; 30;   5.792;  21.631; 138.420; 287.117; 155.773; 299.967;  13.570; -10.536; -10.906;   5.993;   5.793;   5.221;   2.275;  -1.059;;;;;;;;;;;;;;;;;;
2006-10-12T02:16:02.373Z;0;7.7700e+00;0;     0.059;  3007.872;  25210.846; 0;  25030.770;  25210.846;  26579.846;  23571.975; 30;   5.793;  21.693; 138.481; 287.181; 155.834; 300.031;  13.570; -10.524; -10.893;   5.993;   5.794;   5.221;   2.276;  -1.058;;;;;;;;;;;;;;;;;;
2006-10-12T02:16:10.373Z;0;7.5210e+00;0;     0.062;  3007.872;  24809.650; 0;  24626.641;  24809.650;  26176.457;  23168.584; 30;   5.793;  21.756; 138.543; 287.244; 155.895; 300.095;  13.571; -10.511; -10.881;   5.992;   5.794;   5.221;   2.278;  -1.057;;;;;;;;;;;;;;;;;;
2006-10-12T02:16:26.373Z;0;7.4260e+00;0;     0.060;  3007.872;  24655.727; 0;  24471.566;  24655.727;  26021.672;  23013.801; 30;   5.794;  21.881; 138.666; 287.370; 156.016; 300.222;  13.573; -10.486; -10.856;   5.992;   5.795;   5.221;   2.280;  -1.054;;;;;;;;;;;;;;;;;;
2006-10-12T02:16:34.373Z;0;7.3210e+00;0;     0.078;  3007.872;  24483.361; 0;  24297.895;  24483.361;  25848.330;  22840.457; 30;   5.794;  21.944; 138.727; 287.433; 156.077; 300.286;  13.574; -10.474; -10.843;   5.992;   5.795;   5.221;   2.282;  -1.053;;;;;;;;;;;;;;;;;;
2006-10-12T02:16:42.373Z;0;7.3000e+00;0;     0.051;  3007.872;  24447.693; 0;  24261.953;  24447.693;  25812.457;  22804.586; 30;   5.794;  22.006; 138.788; 287.496; 156.138; 300.350;  13.575; -10.461; -10.831;   5.992;   5.796;   5.221;   2.283;  -1.052;;;;;;;;;;;;;;;;;;
2006-10-12T02:16:50.373Z;0;7.2760e+00;0;     0.054;  3007.872;  24409.436; 0;  24223.402;  24409.436;  25773.980;  22766.109; 30;   5.795;  22.069; 138.850; 287.559; 156.198; 300.414;  13.575; -10.449; -10.818;   5.992;   5.796;   5.221;   2.284;  -1.051;;;;;;;;;;;;;;;;;;
2006-10-12T02:16:58.373Z;0;7.2660e+00;0;     0.054;  3007.872;  24392.168; 0;  24206.002;  24392.168;  25756.613;  22748.742; 30;   5.795;  22.132; 138.911; 287.622; 156.259; 300.477;  13.576; -10.436; -10.805;   5.992;   5.796;   5.221;   2.286;  -1.050;;;;;;;;;;;;;;;;;;
2006-10-12T02:17:14.373Z;0;7.1920e+00;0;     0.056;  3002.748;  24269.721; 0;  24083.248;  24269.721;  25631.375;  22628.627; 30;   5.796;  22.257; 139.034; 287.749; 156.380; 300.605;  13.578; -10.411; -10.780;   5.992;   5.797;   5.221;   2.289;  -1.047;;;;;;;;;;;;;;;;;;
2006-10-12T02:17:22.373Z;0;7.1810e+00;0;     0.064;  3002.748;  24251.260; 0;  24064.645;  24251.260;  25612.807;  22610.061; 30;   5.796;  22.319; 139.096; 287.812; 156.441; 300.669;  13.579; -10.398; -10.768;   5.992;   5.797;   5.221;   2.290;  -1.046;;;;;;;;;;;;;;;;;;
2006-10-12T02:17:30.373Z;0;6.5660e+00;0;     0.062;  3002.748;  23206.160; 0;  23011.070;  23206.160;  24561.371;  21558.623; 30;   5.797;  22.382; 139.157; 287.875; 156.501; 300.733;  13.579; -10.386; -10.755;   5.991;   5.798;   5.221;   2.291;  -1.045;;;;;;;;;;;;;;;;;;
2006-10-12T02:17:38.373Z;0;6.8040e+00;0;     0.077;  3002.748;  23614.830; 0;  23423.145;  23614.830;  24972.586;  21969.838; 30;   5.797;  22.445; 139.219; 287.938; 156.562; 300.797;  13.580; -10.373; -10.743;   5.991;   5.798;   5.221;   2.293;  -1.044;;;;;;;;;;;;;;;;;;
2006-10-12T02:18:02.373Z;0;7.1250e+00;0;     0.072;  2989.700;  24155.965; 0;  23970.238;  24155.965;  25511.654;  22521.955; 30;   5.798;  22.633; 139.403; 288.127; 156.744; 300.989;  13.583; -10.336; -10.705;   5.991;   5.799;   5.221;   2.297;  -1.040;;;;;;;;;;;;;;;;;;
2006-10-12T02:18:10.373Z;0;7.1430e+00;0;     0.098;  2989.700;  24185.551; 0;  24000.053;  24185.551;  25541.412;  22551.711; 30;   5.799;  22.695; 139.465; 288.190; 156.804; 301.053;  13.584; -10.323; -10.692;   5.991;   5.800;   5.221;   2.298;  -1.039;;;;;;;;;;;;;;;;;;
2006-10-12T02:18:18.373Z;0;6.8630e+00;0;     0.110;  2989.700;  23714.834; 0;  23525.625;  23714.834;  25067.920;  22078.221; 30;   5.799;  22.758; 139.527; 288.254; 156.865; 301.117;  13.584; -10.310; -10.680;   5.991;   5.800;   5.221;   2.300;  -1.038;;;;;;;;;;;;;;;;;;
2006-10-12T02:18:26.372Z;0;7.5330e+00;0;     0.066;  2989.700;  24827.842; 0;  24647.180;  24827.842;  26187.318;  23197.619; 30;   5.799;  22.821; 139.588; 288.317; 156.925; 301.181;  13.585; -10.298; -10.667;   5.991;   5.800;   5.221;   2.301;  -1.037;;;;;;;;;;;;;;;;;;
2006-10-12T02:18:34.372Z;0;7.6070e+00;0;     0.063;  2989.700;  24947.137; 0;  24767.344;  24947.137;  26307.264;  23317.564; 30;   5.800;  22.883; 139.650; 288.380; 156.986; 301.245;  13.586; -10.285; -10.655;   5.991;   5.801;   5.222;   2.302;  -1.035;;;;;;;;;;;;;;;;;;
2006-10-12T02:18:50.372Z;0;7.6630e+00;0;     0.062;  2989.700;  25037.676; 0;  24858.537;  25037.676;  26398.293;  23408.594; 30;   5.800;  23.009; 139.773; 288.506; 157.107; 301.373;  13.588; -10.260; -10.630;   5.990;   5.801;   5.222;   2.305;  -1.033;;;;;;;;;;;;;;;;;;
2006-10-12T02:18:58.372Z;0;7.5260e+00;0;     0.065;  2989.700;  24816.871; 0;  24636.127;  24816.871;  26176.287;  23186.588; 30;   5.801;  23.071; 139.834; 288.569; 157.167; 301.437;  13.589; -10.248; -10.617;   5.990;   5.802;   5.222;   2.306;  -1.032;;;;;;;;;;;;;;;;;;
2006-10-12T02:19:06.372Z;0;7.4160e+00;0;     0.059;  2984.828;  24636.246; 0;  24454.764;  24636.246;  25992.674;  23007.846; 30;   5.801;  23.134; 139.896; 288.633; 157.227; 301.501;  13.589; -10.235; -10.604;   5.990;   5.802;   5.222;   2.308;  -1.031;;;;;;;;;;;;;;;;;;
2006-10-12T02:19:14.372Z;0;7.0610e+00;0;     0.057;  2984.828;  24047.598; 0;  23861.639;  24047.598;  25400.678;  22415.850; 30;   5.801;  23.197; 139.957; 288.696; 157.288; 301.565;  13.590; -10.223; -10.592;   5.990;   5.802;   5.222;   2.309;  -1.029;;;;;;;;;;;;;;;;;;
2006-10-12T02:19:22.372Z;0;7.0790e+00;0;     0.063;  2984.828;  24078.340; 0;  23892.619;  24078.340;  25431.598;  22446.770; 30;   5.802;  23.259; 140.019; 288.759; 157.348; 301.630;  13.591; -10.210; -10.579;   5.990;   5.803;   5.222;   2.310;  -1.028;;;;;;;;;;;;;;;;;;
2006-10-12T02:19:38.372Z;0;7.1140e+00;0;     0.085;  2984.828;  24136.598; 0;  23951.328;  24136.598;  25490.193;  22505.365; 30;   5.803;  23.385; 140.142; 288.885; 157.469; 301.758;  13.593; -10.185; -10.554;   5.990;   5.804;   5.222;   2.313;  -1.026;;;;;;;;;;;;;;;;;;
2006-10-12T02:19:46.372Z;0;6.9970e+00;0;     0.074;  2984.828;  23941.318; 0;  23754.527;  23941.318;  25293.775;  22308.947; 30;   5.803;  23.447; 140.203; 288.948; 157.529; 301.822;  13.594; -10.173; -10.542;   5.990;   5.804;   5.222;   2.315;  -1.025;;;;;;;;;;;;;;;;;;
2006-10-12T02:19:54.372Z;0;6.9440e+00;0;     0.075;  2984.828;  23850.730; 0;  23663.223;  23850.730;  25202.652;  22217.826; 30;   5.803;  23.510; 140.265; 289.012; 157.589; 301.887;  13.594; -10.160; -10.529;   5.990;   5.804;   5.222;   2.316;  -1.024;;;;;;;;;;;;;;;;;;
2006-10-12T02:20:02.372Z;0;6.8270e+00;0;     0.057;  2977.828;  23651.893; 0;  23463.686;  23651.893;  24999.793;  22021.965; 30;   5.804;  23.573; 140.326; 289.075; 157.650; 301.951;  13.595; -10.147; -10.517;   5.990;   5.805;   5.222;   2.317;  -1.022;;;;;;;;;;;;;;;;;;
2006-10-12T02:20:10.372Z;0;6.7810e+00;0;     0.062;  2977.828;  23573.186; 0;  23384.346;  23573.186;  24920.611;  21942.785; 30;   5.804;  23.635; 140.388; 289.138; 157.711; 302.014;  13.596; -10.135; -10.504;   5.990;   5.805;   5.222;   2.319;  -1.021;;;;;;;;;;;;;;;;;;
2006-10-12T02:20:26.372Z;0;6.7610e+00;0;     0.054;  2977.828;  23539.514; 0;  23350.402;  23539.514;  24886.736;  21908.908; 30;   5.805;  23.761; 140.511; 289.264; 157.833; 302.142;  13.598; -10.110; -10.479;   5.989;   5.806;   5.222;   2.321;  -1.019;;;;;;;;;;;;;;;;;;
2006-10-12T02:20:34.372Z;0;6.7410e+00;0;     0.055;  2977.828;  23505.068; 0;  23315.676;  23505.068;  24852.082;  21874.254; 30;   5.805;  23.823; 140.573; 289.327; 157.894; 302.205;  13.598; -10.097; -10.467;   5.989;   5.806;   5.222;   2.323;  -1.018;;;;;;;;;;;;;;;;;;
2006-10-12T02:20:42.372Z;0;6.7500e+00;0;     0.051;  2977.828;  23520.209; 0;  23330.939;  23520.209;  24867.314;  21889.486; 30;   5.806;  23.886; 140.634; 289.391; 157.955; 302.269;  13.599; -10.085; -10.454;   5.989;   5.806;   5.222;   2.324;  -1.016;;;;;;;;;;;;;;;;;;
2006-10-12T02:20:50.372Z;0;6.7520e+00;0;     0.050;  2977.828;  23523.998; 0;  23334.760;  23523.998;  24871.127;  21893.299; 30;   5.806;  23.949; 140.696; 289.454; 158.016; 302.332;  13.600; -10.072; -10.441;   5.989;   5.807;   5.222;   2.326;  -1.015;;;;;;;;;;;;;;;;;;
2006-10-12T02:20:58.372Z;0;9.3780e+00;0;     0.068;  2977.828;  27660.150; 0;  27499.391;  27660.150;  29028.582;  26050.754; 30;   5.806;  24.011; 140.757; 289.517; 158.077; 302.396;  13.601; -10.060; -10.429;   5.989;   5.807;   5.222;   2.327;  -1.014;;;;;;;;;;;;;;;;;;
2006-10-12T02:21:14.371Z;0;9.2880e+00;0;     0.067;  2966.292;  27528.639; 0;  27368.359;  27528.639;  28891.662;  25925.371; 30;   5.807;  24.137; 140.880; 289.643; 158.199; 302.523;  13.603; -10.035; -10.404;   5.989;   5.808;   5.222;   2.330;  -1.012;;;;;;;;;;;;;;;;;;
2006-10-12T02:21:22.371Z;0;9.3210e+00;0;     0.068;  2966.292;  27576.695; 0;  27416.697;  27576.695;  28939.930;  25973.637; 30;   5.807;  24.200; 140.942; 289.707; 158.260; 302.587;  13.603; -10.022; -10.391;   5.989;   5.808;   5.222;   2.331;  -1.010;;;;;;;;;;;;;;;;;;
2006-10-12T02:21:30.371Z;0;9.2600e+00;0;     0.069;  2966.292;  27487.338; 0;  27326.816;  27487.338;  28850.180;  25883.889; 30;   5.808;  24.262; 141.004; 289.770; 158.321; 302.651;  13.604; -10.010; -10.379;   5.989;   5.809;   5.222;   2.332;  -1.009;;;;;;;;;;;;;;;;;;
2006-10-12T02:21:38.371Z;0;9.1590e+00;0;     0.068;  2966.292;  27338.859; 0;  27177.461;  27338.859;  28701.045;  25734.754; 30;   5.808;  24.325; 141.065; 289.833; 158.382; 302.714;  13.605;  -9.997; -10.366;   5.989;   5.809;   5.222;   2.334;  -1.008;;;;;;;;;;;;;;;;;;
2006-10-12T02:21:46.371Z;0;9.0460e+00;0;     0.080;  2966.292;  27171.787; 0;  27009.389;  27171.787;  28533.227;  25566.934; 30;   5.809;  24.388; 141.127; 289.896; 158.443; 302.778;  13.606;  -9.985; -10.354;   5.989;   5.809;   5.222;   2.335;  -1.007;;;;;;;;;;;;;;;;;;
2006-10-12T02:22:02.371Z;0;9.8530e+00;0;     0.064;  2960.804;  28342.131; 0;  28187.055;  28342.131;  29706.305;  26745.502; 30;   5.809;  24.513; 141.250; 290.023; 158.565; 302.905;  13.608;  -9.960; -10.329;   5.988;   5.810;   5.223;   2.338;  -1.005;;;;;;;;;;;;;;;;;;
2006-10-12T02:22:10.371Z;0;9.8110e+00;0;     0.061;  2960.804;  28283.055; 0;  28127.652;  28283.055;  29646.984;  26686.182; 30;   5.810;  24.576; 141.312; 290.086; 158.626; 302.969;  13.608;  -9.947; -10.316;   5.988;   5.810;   5.223;   2.339;  -1.003;;;;;;;;;;;;;;;;;;
2006-10-12T02:22:18.371Z;0;9.8180e+00;0;     0.058;  2960.804;  28292.648; 0;  28137.299;  28292.648;  29656.619;  26695.814; 30;   5.810;  24.639; 141.373; 290.149; 158.687; 303.033;  13.609;  -9.935; -10.304;   5.988;   5.811;   5.223;   2.341;  -1.002;;;;;;;;;;;;;;;;;;
2006-10-12T02:22:26.371Z;0;9.7960e+00;0;     0.057;  2960.804;  28262.289; 0;  28106.771;  28262.289;  29626.133;  26665.330; 30;   5.810;  24.701; 141.435; 290.212; 158.748; 303.096;  13.610;  -9.922; -10.291;   5.988;   5.811;   5.223;   2.342;  -1.001;;;;;;;;;;;;;;;;;;
2006-10-12T02:22:34.371Z;0;9.7620e+00;0;     0.056;  2960.804;  28213.523; 0;  28057.736;  28213.523;  29577.166;  26616.361; 30;   5.811;  24.764; 141.496; 290.275; 158.809; 303.160;  13.611;  -9.910; -10.279;   5.988;   5.812;   5.223;   2.343;  -1.000;;;;;;;;;;;;;;;;;;
2006-10-12T02:22:50.371Z;0;9.5030e+00;0;     0.061;  2960.804;  27840.141; 0;  27682.252;  27840.141;  29202.211;  26241.406; 30;   5.812;  24.890; 141.620; 290.402; 158.931; 303.287;  13.612;  -9.885; -10.254;   5.988;   5.812;   5.223;   2.346;  -0.997;;;;;;;;;;;;;;;;;;
2006-10-12T02:22:58.371Z;0;9.6900e+00;0;     0.058;  2960.804;  28109.982; 0;  27953.617;  28109.982;  29473.193;  26512.389; 30;   5.812;  24.952; 141.681; 290.465; 158.992; 303.351;  13.613;  -9.872; -10.241;   5.988;   5.813;   5.223;   2.347;  -0.996;;;;;;;;;;;;;;;;;;
2006-10-12T02:23:06.371Z;0;9.5540e+00;0;     0.062;  2951.060;  27913.484; 0;  27757.051;  27913.484;  29271.771;  26320.711; 30;   5.812;  25.015; 141.743; 290.528; 159.053; 303.415;  13.614;  -9.860; -10.229;   5.988;   5.813;   5.223;   2.349;  -0.995;;;;;;;;;;;;;;;;;;
2006-10-12T02:23:14.371Z;0;9.5730e+00;0;     0.065;  2951.060;  27940.383; 0;  27784.100;  27940.383;  29298.783;  26347.723; 30;   5.813;  25.078; 141.804; 290.592; 159.114; 303.478;  13.615;  -9.847; -10.216;   5.988;   5.813;   5.223;   2.350;  -0.994;;;;;;;;;;;;;;;;;;
2006-10-12T02:23:22.371Z;0;9.5060e+00;0;     0.060;  2951.060;  27844.158; 0;  27687.332;  27844.158;  29202.152;  26251.092; 30;   5.813;  25.141; 141.866; 290.655; 159.175; 303.542;  13.616;  -9.835; -10.204;   5.988;   5.814;   5.223;   2.351;  -0.993;;;;;;;;;;;;;;;;;;
2006-10-12T02:23:38.370Z;0;9.2500e+00;0;     0.063;  2951.060;  27470.154; 0;  27311.182;  27470.154;  28826.541;  25875.480; 30;   5.814;  25.266; 141.989; 290.781; 159.297; 303.669;  13.617;  -9.810; -10.178;   5.988;   5.814;   5.223;   2.354;  -0.990;;;;;;;;;;;;;;;;;;
2006-10-12T02:23:46.370Z;0;9.2200e+00;0;     0.060;  2951.060;  27426.846; 0;  27267.621;  27426.846;  28783.043;  25831.984; 30;   5.814;  25.329; 142.051; 290.845; 159.358; 303.733;  13.618;  -9.797; -10.166;   5.988;   5.815;   5.223;   2.356;  -0.989;;;;;;;;;;;;;;;;;;
2006-10-12T02:23:54.370Z;0;9.0910e+00;0;     0.061;  2951.060;  27236.334; 0;  27075.988;  27236.334;  28591.693;  25640.633; 30;   5.815;  25.392; 142.112; 290.908; 159.419; 303.797;  13.619;  -9.785; -10.153;   5.988;   5.815;   5.223;   2.357;  -0.988;;;;;;;;;;;;;;;;;;
2006-10-12T02:24:02.370Z;0;9.0150e+00;0;     0.058;  2945.320;  27123.143; 0;  26962.752;  27123.143;  28475.598;  25530.279; 30;   5.815;  25.454; 142.174; 290.971; 159.480; 303.861;  13.620;  -9.772; -10.141;   5.987;   5.816;   5.223;   2.358;  -0.987;;;;;;;;;;;;;;;;;;
2006-10-12T02:24:10.370Z;0;8.9090e+00;0;     0.058;  2945.320;  26964.945; 0;  26803.607;  26964.945;  28316.693;  25371.373; 30;   5.815;  25.517; 142.236; 291.034; 159.541; 303.924;  13.621;  -9.760; -10.128;   5.987;   5.816;   5.223;   2.360;  -0.986;;;;;;;;;;;;;;;;;;
2006-10-12T02:24:26.370Z;0;8.7100e+00;0;     0.089;  2945.320;  26664.848; 0;  26501.684;  26664.848;  28015.229;  25069.908; 30;   5.816;  25.643; 142.359; 291.161; 159.663; 304.052;  13.622;  -9.735; -10.103;   5.987;   5.817;   5.223;   2.362;  -0.983;;;;;;;;;;;;;;;;;;
2006-10-12T02:24:34.370Z;0;6.5940e+00;0;     0.158;  2945.320;  23247.496; 0;  23060.164;  23247.496;  24579.799;  21634.479; 30;   5.816;  25.705; 142.421; 291.224; 159.724; 304.115;  13.623;  -9.722; -10.091;   5.987;   5.817;   5.223;   2.364;  -0.982;;;;;;;;;;;;;;;;;;
2006-10-12T02:24:42.370Z;0;6.6120e+00;0;     0.108;  2945.320;  23278.895; 0;  23091.816;  23278.895;  24611.389;  21666.068; 30;   5.817;  25.768; 142.482; 291.287; 159.785; 304.179;  13.624;  -9.710; -10.078;   5.987;   5.817;   5.223;   2.365;  -0.981;;;;;;;;;;;;;;;;;;
2006-10-12T02:24:50.370Z;0;6.6090e+00;0;     0.056;  2945.320;  23273.480; 0;  23086.359;  23273.480;  24605.941;  21660.621; 30;   5.817;  25.831; 142.544; 291.351; 159.846; 304.243;  13.625;  -9.697; -10.066;   5.987;   5.818;   5.223;   2.366;  -0.980;;;;;;;;;;;;;;;;;;
2006-10-12T02:24:58.370Z;0;8.2720e+00;0;     0.112;  2945.320;  25994.795; 0;  25827.396;  25994.795;  27342.008;  24396.688; 30;   5.818;  25.894; 142.606; 291.414; 159.907; 304.307;  13.626;  -9.685; -10.053;   5.987;   5.818;   5.223;   2.368;  -0.978;;;;;;;;;;;;;;;;;;
2006-10-12T02:25:14.370Z;0;8.2360e+00;0;     0.102;  2935.548;  25938.301; 0;  25771.650;  25938.301;  27281.189;  24345.641; 30;   5.818;  26.019; 142.729; 291.540; 160.029; 304.434;  13.627;  -9.660; -10.028;   5.987;   5.819;   5.223;   2.371;  -0.976;;;;;;;;;;;;;;;;;;
2006-10-12T02:25:22.370Z;0;9.2370e+00;0;     0.083;  2935.548;  27450.182; 0;  27292.766;  27450.182;  28799.979;  25864.430; 30;   5.819;  26.082; 142.790; 291.604; 160.090; 304.498;  13.628;  -9.647; -10.016;   5.987;   5.819;   5.223;   2.372;  -0.975;;;;;;;;;;;;;;;;;;
2006-10-12T02:25:30.370Z;0;8.3500e+00;0;     0.094;  2935.548;  26114.650; 0;  25949.133;  26114.650;  27458.385;  24522.838; 30;   5.819;  26.145; 142.852; 291.667; 160.151; 304.561;  13.629;  -9.635; -10.003;   5.987;   5.820;   5.223;   2.373;  -0.974;;;;;;;;;;;;;;;;;;
2006-10-12T02:25:38.370Z;0;8.6800e+00;0;     0.072;  2935.548;  26619.234; 0;  26456.875;  26619.234;  27965.332;  25029.783; 30;   5.820;  26.208; 142.914; 291.730; 160.212; 304.625;  13.630;  -9.622;  -9.991;   5.987;   5.820;   5.223;   2.375;  -0.973;;;;;;;;;;;;;;;;;;
2006-10-12T02:25:46.370Z;0;8.6260e+00;0;     0.075;  2935.548;  26536.512; 0;  26373.643;  26536.512;  27882.229;  24946.680; 30;   5.820;  26.270; 142.975; 291.794; 160.273; 304.689;  13.631;  -9.610;  -9.978;   5.987;   5.820;   5.223;   2.376;  -0.971;;;;;;;;;;;;;;;;;;
2006-10-12T02:26:02.370Z;0;8.7860e+00;0;     0.090;  2925.552;  26777.887; 0;  26617.596;  26777.887;  28120.535;  25194.982; 30;   5.821;  26.396; 143.099; 291.920; 160.396; 304.816;  13.632;  -9.585;  -9.953;   5.987;   5.821;   5.223;   2.379;  -0.969;;;;;;;;;;;;;;;;;;
2006-10-12T02:26:10.370Z;0;9.3010e+00;0;     0.085;  2925.552;  27542.686; 0;  27386.871;  27542.686;  28888.684;  25963.131; 30;   5.821;  26.459; 143.160; 291.983; 160.457; 304.880;  13.633;  -9.572;  -9.941;   5.987;   5.822;   5.223;   2.380;  -0.968;;;;;;;;;;;;;;;;;;
2006-10-12T02:26:18.369Z;0;9.4100e+00;0;     0.098;  2925.552;  27701.004; 0;  27546.084;  27701.004;  29047.672;  26122.119; 30;   5.821;  26.522; 143.222; 292.047; 160.518; 304.944;  13.634;  -9.560;  -9.929;   5.987;   5.822;   5.223;   2.381;  -0.967;;;;;;;;;;;;;;;;;;
2006-10-12T02:26:26.369Z;0;9.7230e+00;0;     0.102;  2925.552;  28153.305; 0;  28000.887;  28153.305;  29501.846;  26576.293; 30;   5.822;  26.584; 143.284; 292.110; 160.579; 305.008;  13.635;  -9.547;  -9.916;   5.986;   5.822;   5.223;   2.383;  -0.965;;;;;;;;;;;;;;;;;;
2006-10-12T02:26:34.369Z;0;9.7160e+00;0;     0.087;  2925.552;  28143.740; 0;  27991.271;  28143.740;  29492.242;  26566.689; 30;   5.822;  26.647; 143.345; 292.173; 160.640; 305.071;  13.635;  -9.535;  -9.904;   5.986;   5.823;   5.223;   2.384;  -0.964;;;;;;;;;;;;;;;;;;
2006-10-12T02:26:50.369Z;0;9.9350e+00;0;     0.084;  2925.552;  28456.018; 0;  28305.230;  28456.018;  29805.779;  26880.227; 30;   5.823;  26.773; 143.469; 292.300; 160.762; 305.199;  13.637;  -9.510;  -9.879;   5.986;   5.823;   5.224;   2.387;  -0.962;;;;;;;;;;;;;;;;;;
2006-10-12T02:26:58.369Z;0;9.8310e+00;0;     0.086;  2925.552;  28307.668; 0;  28156.086;  28307.668;  29656.834;  26731.283; 30;   5.823;  26.836; 143.530; 292.363; 160.823; 305.263;  13.638;  -9.497;  -9.866;   5.986;   5.824;   5.224;   2.388;  -0.961;;;;;;;;;;;;;;;;;;
2006-10-12T02:27:06.369Z;0;9.7610e+00;0;     0.079;  2915.920;  28206.928; 0;  28055.805;  28206.928;  29551.621;  26635.701; 30;   5.824;  26.899; 143.592; 292.427; 160.884; 305.326;  13.639;  -9.485;  -9.854;   5.986;   5.824;   5.224;   2.390;  -0.960;;;;;;;;;;;;;;;;;;
2006-10-12T02:27:14.369Z;0;9.6870e+00;0;     0.079;  2915.920;  28101.514; 0;  27949.820;  28101.514;  29445.781;  26529.861; 30;   5.824;  26.961; 143.654; 292.490; 160.945; 305.390;  13.640;  -9.472;  -9.841;   5.986;   5.825;   5.224;   2.391;  -0.958;;;;;;;;;;;;;;;;;;
2006-10-12T02:27:22.369Z;0;9.5560e+00;0;     0.066;  2915.920;  27912.637; 0;  27759.912;  27912.637;  29256.131;  26340.211; 30;   5.824;  27.024; 143.716; 292.553; 161.006; 305.454;  13.640;  -9.460;  -9.829;   5.986;   5.825;   5.224;   2.392;  -0.957;;;;;;;;;;;;;;;;;;
2006-10-12T02:27:38.369Z;0;9.4530e+00;0;     0.059;  2915.920;  27763.051; 0;  27609.498;  27763.051;  29105.926;  26190.006; 30;   5.825;  27.150; 143.839; 292.680; 161.129; 305.581;  13.642;  -9.435;  -9.804;   5.986;   5.826;   5.224;   2.395;  -0.955;;;;;;;;;;;;;;;;;;
2006-10-12T02:28:02.369Z;0;9.4950e+00;0;     0.054;  2905.840;  27822.961; 0;  27670.801;  27822.961;  29161.840;  26256.000; 30;   5.826;  27.338; 144.024; 292.870; 161.312; 305.773;  13.644;  -9.398;  -9.766;   5.986;   5.827;   5.224;   2.399;  -0.951;;;;;;;;;;;;;;;;;;
2006-10-12T02:28:10.369Z;0;9.3750e+00;0;     0.055;  2905.840;  27648.787; 0;  27495.664;  27648.787;  28986.945;  26081.104; 30;   5.827;  27.401; 144.086; 292.933; 161.373; 305.837;  13.645;  -9.385;  -9.754;   5.986;   5.827;   5.224;   2.400;  -0.950;;;;;;;;;;;;;;;;;;
2006-10-12T02:28:26.369Z;0;9.3590e+00;0;     0.055;  2905.840;  27624.578; 0;  27471.320;  27624.578;  28962.635;  26056.795; 30;   5.828;  27.527; 144.209; 293.060; 161.495; 305.964;  13.647;  -9.360;  -9.729;   5.986;   5.828;   5.224;   2.403;  -0.948;;;;;;;;;;;;;;;;;;
2006-10-12T02:28:34.369Z;0;9.2500e+00;0;     0.057;  2905.840;  27466.006; 0;  27311.857;  27466.006;  28803.396;  25897.557; 30;   5.828;  27.590; 144.271; 293.123; 161.556; 306.028;  13.648;  -9.348;  -9.716;   5.986;   5.828;   5.224;   2.405;  -0.946;;;;;;;;;;;;;;;;;;